StationID,Date,MaxTemp,MinTemp,Precipitation,Snowfall,SnowDepth
"USC00509349","1963-10-08",42.08,35.96,0.00,0.00,0.00
"USC00509349","1963-10-09",50.00,24.98,0.00,0.00,0.00
"USC00509349","1963-10-10",37.04,28.94,0.00,0.00,0.00
"USC00509349","1963-10-11",42.08,21.02,0.00,0.00,0.00
"USC00509349","1963-10-12",42.98,24.08,0.00,0.00,0.00
"USC00509349","1963-10-13",42.98,26.96,0.00,0.00,0.00
"USC00509349","1963-10-14",46.04,39.02,0.00,0.00,0.00
"USC00509349","1963-10-15",48.92,37.94,0.00,0.00,0.00
"USC00509349","1963-10-16",46.94,35.96,107.00,0.00,0.00
"USC00509349","1963-10-17",42.08,30.92,79.00,0.00,0.00
"USC00509349","1963-10-18",37.04,28.04,0.00,0.00,0.00
"USC00509349","1963-10-19",39.92,32.00,0.00,0.00,0.00
"USC00509349","1963-10-20",39.92,30.92,33.00,13.00,0.00
"USC00509349","1963-10-21",48.92,28.04,0.00,13.00,0.00
"USC00509349","1963-10-22",48.92,24.98,0.00,13.00,0.00
"USC00509349","1963-10-23",37.94,30.92,0.00,0.00,0.00
"USC00509349","1963-10-24",37.94,19.94,20.00,20.00,25.00
"USC00509349","1963-10-25",35.06,17.06,0.00,0.00,25.00
"USC00509349","1963-10-26",32.00,8.06,,36.00,51.00
"USC00509349","1963-10-27",33.08,14.00,0.00,0.00,51.00
"USC00509349","1963-10-28",37.94,12.92,0.00,0.00,51.00
"USC00509349","1963-10-29",33.98,6.08,0.00,0.00,51.00
"USC00509349","1963-10-30",32.00,24.08,0.00,0.00,25.00
"USC00509349","1963-10-31",41.00,26.96,0.00,0.00,25.00
"USC00509349","1963-12-01",30.02,5.00,0.00,0.00,25.00
"USC00509349","1963-12-02",37.94,21.02,0.00,0.00,25.00
"USC00509349","1963-12-03",42.08,26.06,8.00,0.00,25.00
"USC00509349","1963-12-04",33.98,19.94,,76.00,102.00
"USC00509349","1963-12-05",35.06,10.04,53.00,0.00,102.00
"USC00509349","1963-12-06",26.96,21.92,102.00,127.00,229.00
"USC00509349","1963-12-07",28.04,21.92,36.00,102.00,330.00
"USC00509349","1963-12-08",24.08,19.04,0.00,0.00,330.00
"USC00509349","1963-12-09",30.02,21.02,381.00,457.00,787.00
"USC00509349","1963-12-10",33.98,30.02,475.00,178.00,965.00
"USC00509349","1963-12-11",35.96,32.00,0.00,0.00,762.00
"USC00509349","1963-12-12",39.02,32.00,208.00,0.00,508.00
"USC00509349","1963-12-13",35.06,24.08,0.00,0.00,457.00
"USC00509349","1963-12-14",28.94,10.04,0.00,0.00,432.00
"USC00509349","1963-12-15",15.08,3.02,0.00,0.00,432.00
"USC00509349","1963-12-16",10.04,-0.04,0.00,0.00,432.00
"USC00509349","1963-12-17",,,0.00,0.00,
"USC00509349","1963-12-18",,,0.00,0.00,
"USC00509349","1963-12-19",,,0.00,0.00,406.00
"USC00509349","1963-12-20",33.08,19.94,0.00,0.00,406.00
"USC00509349","1963-12-21",33.98,14.00,0.00,0.00,406.00
"USC00509349","1963-12-22",35.06,14.00,0.00,0.00,406.00
"USC00509349","1963-12-23",21.92,1.94,0.00,0.00,406.00
"USC00509349","1964-01-06",28.04,15.08,0.00,0.00,508.00
"USC00509349","1964-01-07",17.96,-18.04,0.00,0.00,508.00
"USC00509349","1964-01-08",15.08,-0.94,0.00,0.00,508.00
"USC00509349","1964-01-09",17.06,-5.08,0.00,0.00,508.00
"USC00509349","1964-01-10",15.98,-0.04,0.00,0.00,508.00
"USC00509349","1964-01-11",19.94,10.94,0.00,0.00,508.00
"USC00509349","1964-01-12",26.96,6.98,0.00,0.00,508.00
"USC00509349","1964-01-13",28.94,6.98,0.00,0.00,508.00
"USC00509349","1964-01-14",24.98,3.92,0.00,0.00,508.00
"USC00509349","1964-01-15",30.92,6.08,0.00,0.00,508.00
"USC00509349","1964-01-16",30.02,15.08,,,508.00
"USC00509349","1964-01-17",28.04,-0.04,0.00,0.00,508.00
"USC00509349","1964-01-18",24.08,3.92,0.00,0.00,508.00
"USC00509349","1964-01-19",19.94,5.00,0.00,0.00,508.00
"USC00509349","1964-01-20",15.08,3.02,0.00,0.00,508.00
"USC00509349","1964-01-21",10.04,-20.02,0.00,0.00,508.00
"USC00509349","1964-01-22",-0.04,-23.08,0.00,0.00,508.00
"USC00509349","1964-01-23",12.02,-0.04,0.00,0.00,508.00
"USC00509349","1964-01-24",15.98,-4.00,0.00,0.00,508.00
"USC00509349","1964-01-25",19.94,1.04,0.00,0.00,508.00
"USC00509349","1964-01-26",33.08,14.00,0.00,0.00,508.00
"USC00509349","1964-01-27",32.00,23.00,51.00,64.00,584.00
"USC00509349","1964-01-28",30.92,1.04,0.00,0.00,584.00
"USC00509349","1964-01-29",24.08,-14.98,0.00,0.00,584.00
"USC00509349","1964-01-30",12.92,-18.94,0.00,0.00,584.00
"USC00509349","1964-01-31",21.02,12.02,46.00,38.00,610.00
"USC00509349","1964-02-01",28.04,14.00,30.00,25.00,635.00
"USC00509349","1964-02-02",33.98,26.06,25.00,38.00,686.00
"USC00509349","1964-02-03",33.98,19.94,178.00,203.00,889.00
"USC00509349","1964-02-04",33.98,-23.08,71.00,89.00,965.00
"USC00509349","1964-02-05",,,406.00,203.00,1168.00
"USC00509349","1964-02-06",35.06,-22.00,0.00,0.00,1168.00
"USC00509349","1964-02-07",,,0.00,0.00,1168.00
"USC00509349","1964-02-08",35.06,3.02,0.00,0.00,1168.00
"USC00509349","1964-02-09",14.00,-23.98,0.00,0.00,1168.00
"USC00509349","1964-02-10",5.00,-34.06,0.00,0.00,1168.00
"USC00509349","1964-02-11",12.02,-34.06,13.00,25.00,1194.00
"USC00509349","1964-02-12",19.94,10.04,132.00,152.00,1346.00
"USC00509349","1964-02-13",17.96,-2.92,0.00,0.00,1346.00
"USC00509349","1964-02-14",14.00,1.94,0.00,0.00,1346.00
"USC00509349","1964-02-15",12.02,-31.00,0.00,0.00,1346.00
"USC00509349","1964-02-16",5.00,-29.92,0.00,0.00,1346.00
"USC00509349","1964-02-17",15.08,-27.94,0.00,0.00,1346.00
"USC00509349","1964-02-18",8.96,-27.04,0.00,0.00,1346.00
"USC00509349","1964-02-19",21.02,-27.04,0.00,0.00,1346.00
"USC00509349","1964-02-20",30.02,19.94,102.00,102.00,1448.00
"USC00509349","1964-02-21",35.06,10.04,76.00,51.00,1499.00
"USC00509349","1964-02-22",35.06,21.92,61.00,76.00,1575.00
"USC00509349","1964-02-23",35.06,24.08,107.00,0.00,1575.00
"USC00509349","1964-02-24",33.08,28.04,64.00,127.00,1702.00
"USC00509349","1964-02-25",,,0.00,0.00,1702.00
"USC00509349","1964-02-26",35.06,26.96,114.00,127.00,1829.00
"USC00509349","1964-02-27",35.06,21.92,0.00,0.00,1829.00
"USC00509349","1964-02-28",39.02,19.94,0.00,0.00,1829.00
"USC00509349","1964-02-29",,,0.00,0.00,
"USC00509349","1964-04-12",44.96,21.92,5.00,51.00,1067.00
"USC00509349","1964-04-13",39.02,19.94,,,1041.00
"USC00509349","1964-04-21",46.04,10.04,0.00,0.00,1346.00
"USC00509349","1964-04-22",39.92,30.02,305.00,254.00,1422.00
"USC00509349","1964-04-23",42.08,30.02,0.00,0.00,1372.00
"USC00509349","1964-04-24",46.94,24.98,0.00,0.00,1346.00
"USC00509349","1964-04-25",46.94,21.02,0.00,0.00,1321.00
"USC00509349","1964-04-26",44.96,24.98,0.00,0.00,1295.00
"USC00509349","1964-04-27",44.96,15.98,0.00,0.00,1270.00
"USC00509349","1964-04-28",42.08,26.96,0.00,0.00,1219.00
"USC00509349","1964-04-29",42.98,10.94,0.00,0.00,1194.00
"USC00509349","1964-04-30",42.08,15.98,0.00,0.00,1143.00
"USC00509349","1964-05-01",44.96,15.08,0.00,0.00,1143.00
"USC00509349","1964-05-02",44.96,17.96,0.00,0.00,1118.00
"USC00509349","1964-05-03",62.06,30.02,0.00,0.00,1092.00
"USC00509349","1964-05-04",44.96,26.96,0.00,0.00,1041.00
"USC00509349","1964-05-05",46.94,26.06,0.00,0.00,1016.00
"USC00509349","1964-05-06",50.00,32.00,25.00,0.00,991.00
"USC00509349","1964-05-07",48.92,28.94,0.00,0.00,965.00
"USC00509349","1964-05-08",48.02,24.98,0.00,0.00,965.00
"USC00509349","1964-05-09",30.02,12.02,0.00,0.00,940.00
"USC00509349","1964-05-10",37.94,12.02,0.00,0.00,914.00
"USC00509349","1964-05-11",48.92,24.08,0.00,0.00,889.00
"USC00509349","1964-05-12",51.98,24.98,0.00,0.00,864.00
"USC00509349","1964-05-13",48.92,30.92,25.00,0.00,838.00
"USC00509349","1964-05-14",46.94,33.08,0.00,0.00,787.00
"USC00509349","1964-05-15",46.94,23.00,0.00,0.00,762.00
"USC00509349","1964-05-16",48.02,28.94,0.00,0.00,737.00
"USC00509349","1964-05-17",50.00,28.94,0.00,0.00,711.00
"USC00509349","1964-05-18",50.00,26.06,0.00,0.00,686.00
"USC00509349","1964-05-19",48.02,32.00,0.00,0.00,660.00
"USC00509349","1964-05-20",44.96,30.02,0.00,0.00,660.00
"USC00509349","1964-05-21",44.06,28.94,0.00,0.00,686.00
"USC00509349","1964-05-22",51.98,30.92,25.00,76.00,660.00
"USC00509349","1964-05-23",48.92,28.04,0.00,0.00,635.00
"USC00509349","1964-05-24",48.02,33.08,102.00,0.00,584.00
"USC00509349","1964-05-25",55.04,33.98,13.00,0.00,559.00
"USC00509349","1964-05-26",53.06,26.96,0.00,0.00,533.00
"USC00509349","1964-05-27",57.02,26.96,0.00,0.00,508.00
"USC00509349","1964-05-28",62.06,32.00,0.00,0.00,483.00
"USC00509349","1964-05-29",64.94,30.92,0.00,0.00,457.00
"USC00509349","1964-05-30",68.00,30.92,0.00,0.00,432.00
"USC00509349","1964-05-31",73.04,35.06,0.00,0.00,381.00
"USC00509349","1964-06-01",73.04,35.06,0.00,0.00,330.00
"USC00509349","1964-06-02",75.02,33.98,0.00,0.00,279.00
"USC00509349","1964-06-03",73.04,42.08,0.00,0.00,229.00
"USC00509349","1964-06-04",69.98,39.92,0.00,0.00,178.00
"USC00509349","1964-06-05",62.06,32.00,0.00,0.00,152.00
"USC00509349","1964-06-06",75.02,57.02,0.00,0.00,102.00
"USC00509349","1964-06-07",73.04,37.94,0.00,0.00,51.00
"USC00509349","1964-06-08",64.94,46.04,0.00,0.00,0.00
"USC00509349","1964-06-09",69.98,44.96,13.00,0.00,0.00
"USC00509349","1964-06-10",62.06,46.04,64.00,0.00,0.00
"USC00509349","1964-06-11",64.94,41.00,0.00,0.00,0.00
"USC00509349","1964-06-12",78.08,33.98,0.00,0.00,0.00
"USC00509349","1964-06-13",75.92,39.02,0.00,0.00,0.00
"USC00509349","1964-06-14",71.96,42.08,0.00,0.00,0.00
"USC00509349","1964-06-15",66.02,46.04,64.00,0.00,0.00
"USC00509349","1964-06-16",73.04,33.08,0.00,0.00,0.00
"USC00509349","1964-06-17",77.00,41.00,0.00,0.00,0.00
"USC00509349","1964-06-18",69.98,48.92,64.00,0.00,0.00
"USC00509349","1964-06-19",62.96,46.94,224.00,0.00,0.00
"USC00509349","1964-06-20",64.04,46.04,46.00,0.00,0.00
"USC00509349","1964-06-21",64.04,39.92,0.00,0.00,0.00
"USC00509349","1964-06-22",75.02,41.00,0.00,0.00,0.00
"USC00509349","1964-06-23",75.92,44.96,0.00,0.00,0.00
"USC00509349","1964-06-24",69.98,44.06,0.00,0.00,0.00
"USC00509349","1964-06-25",60.08,48.92,79.00,0.00,0.00
"USC00509349","1964-06-26",57.92,46.94,0.00,0.00,0.00
"USC00509349","1964-06-27",64.94,48.02,30.00,0.00,0.00
"USC00509349","1964-06-28",60.08,48.92,102.00,0.00,0.00
"USC00509349","1964-06-29",55.04,46.94,64.00,0.00,0.00
"USC00509349","1964-06-30",55.04,42.08,0.00,0.00,0.00
"USC00509349","1964-07-01",68.00,33.98,0.00,0.00,0.00
"USC00509349","1964-07-02",66.92,39.92,0.00,0.00,0.00
"USC00509349","1964-07-03",64.04,44.96,38.00,0.00,0.00
"USC00509349","1964-07-04",64.94,44.96,0.00,0.00,0.00
"USC00509349","1964-07-05",73.04,35.96,0.00,0.00,0.00
"USC00509349","1964-07-06",73.94,39.92,0.00,0.00,0.00
"USC00509349","1964-07-07",78.08,42.98,0.00,0.00,0.00
"USC00509349","1964-07-08",69.08,53.06,64.00,0.00,0.00
"USC00509349","1964-07-09",64.94,50.00,30.00,0.00,0.00
"USC00509349","1964-07-10",64.04,44.06,18.00,0.00,0.00
"USC00509349","1964-07-11",51.98,48.92,325.00,0.00,0.00
"USC00509349","1964-07-12",60.08,48.92,33.00,0.00,0.00
"USC00509349","1964-07-13",69.98,50.00,0.00,0.00,0.00
"USC00509349","1964-07-14",75.92,53.06,0.00,0.00,0.00
"USC00509349","1964-07-15",73.04,44.06,0.00,0.00,0.00
"USC00509349","1964-07-16",73.94,46.94,0.00,0.00,0.00
"USC00509349","1964-07-17",71.96,51.08,0.00,0.00,0.00
"USC00509349","1964-07-18",68.00,46.04,0.00,0.00,0.00
"USC00509349","1964-07-19",69.08,41.00,0.00,0.00,0.00
"USC00509349","1964-07-20",78.98,35.06,0.00,0.00,0.00
"USC00509349","1964-07-21",73.04,37.04,0.00,0.00,0.00
"USC00509349","1964-07-22",69.98,42.98,0.00,0.00,0.00
"USC00509349","1964-07-23",69.08,46.94,117.00,0.00,0.00
"USC00509349","1964-07-24",66.02,44.06,0.00,0.00,0.00
"USC00509349","1964-07-25",73.04,44.06,0.00,0.00,0.00
"USC00509349","1964-07-26",,,0.00,0.00,0.00
"USC00509349","1964-07-27",,,0.00,0.00,0.00
"USC00509349","1964-07-28",78.08,42.08,36.00,0.00,0.00
"USC00509349","1964-07-29",73.04,55.04,0.00,0.00,0.00
"USC00509349","1964-07-30",73.04,53.06,8.00,0.00,0.00
"USC00509349","1964-07-31",75.92,46.94,10.00,0.00,0.00
"USC00509349","1964-08-01",73.04,44.06,0.00,0.00,0.00
"USC00509349","1964-08-02",75.02,48.02,28.00,0.00,0.00
"USC00509349","1964-08-03",62.06,51.98,38.00,0.00,0.00
"USC00509349","1964-08-04",62.06,51.08,51.00,0.00,0.00
"USC00509349","1964-08-05",69.08,48.02,20.00,0.00,0.00
"USC00509349","1964-08-06",69.08,44.06,13.00,0.00,0.00
"USC00509349","1964-08-07",71.96,46.94,0.00,0.00,0.00
"USC00509349","1964-08-08",69.08,46.04,25.00,0.00,0.00
"USC00509349","1964-08-09",66.02,46.04,0.00,0.00,0.00
"USC00509349","1964-08-10",69.08,46.04,0.00,0.00,0.00
"USC00509349","1964-08-11",69.98,39.92,0.00,0.00,0.00
"USC00509349","1964-08-12",68.00,48.02,51.00,0.00,0.00
"USC00509349","1964-08-13",69.98,39.92,102.00,0.00,0.00
"USC00509349","1964-08-14",62.06,42.08,0.00,0.00,0.00
"USC00509349","1964-08-15",64.04,51.08,13.00,0.00,0.00
"USC00509349","1964-08-16",,,0.00,0.00,0.00
"USC00509349","1964-08-17",64.04,46.04,0.00,0.00,0.00
"USC00509349","1964-08-18",66.02,46.04,0.00,0.00,0.00
"USC00509349","1964-08-19",57.02,46.94,127.00,0.00,0.00
"USC00509349","1964-08-20",57.02,46.04,36.00,0.00,0.00
"USC00509349","1964-08-21",57.92,35.96,89.00,0.00,0.00
"USC00509349","1964-08-22",62.96,44.96,0.00,0.00,0.00
"USC00509349","1964-08-23",57.92,46.94,160.00,0.00,0.00
"USC00509349","1964-08-24",59.00,46.04,0.00,0.00,0.00
"USC00509349","1964-08-25",66.02,33.08,28.00,0.00,0.00
"USC00509349","1964-08-26",68.00,37.94,0.00,0.00,0.00
"USC00509349","1964-08-27",64.04,35.96,0.00,0.00,0.00
"USC00509349","1964-08-28",64.94,46.94,0.00,0.00,0.00
"USC00509349","1964-08-29",66.02,30.02,0.00,0.00,0.00
"USC00509349","1964-08-30",51.98,46.04,0.00,0.00,0.00
"USC00509349","1964-08-31",62.96,48.02,0.00,0.00,0.00
"USC00509349","1964-09-01",62.06,42.08,0.00,0.00,0.00
"USC00509349","1964-09-02",66.02,33.98,0.00,0.00,0.00
"USC00509349","1964-09-03",64.94,37.94,0.00,0.00,0.00
"USC00509349","1964-09-04",64.94,39.92,0.00,0.00,0.00
"USC00509349","1964-09-05",60.98,46.04,0.00,0.00,0.00
"USC00509349","1964-09-06",64.94,30.92,0.00,0.00,0.00
"USC00509349","1964-09-07",64.04,30.02,0.00,0.00,0.00
"USC00509349","1964-09-08",66.02,35.96,0.00,0.00,0.00
"USC00509349","1964-09-09",66.02,35.06,0.00,0.00,0.00
"USC00509349","1964-09-10",68.00,33.08,0.00,0.00,0.00
"USC00509349","1964-09-11",62.96,30.92,0.00,0.00,0.00
"USC00509349","1964-09-12",,28.94,0.00,0.00,0.00
"USC00509349","1964-09-13",64.04,,0.00,0.00,0.00
"USC00509349","1964-09-14",,,0.00,0.00,0.00
"USC00509349","1964-09-15",55.04,44.96,165.00,0.00,0.00
"USC00509349","1964-09-16",53.06,30.92,0.00,0.00,0.00
"USC00509349","1964-09-17",59.00,42.08,25.00,0.00,0.00
"USC00509349","1964-09-18",55.94,39.02,0.00,0.00,0.00
"USC00509349","1964-09-19",,,0.00,0.00,0.00
"USC00509349","1964-09-20",,,0.00,0.00,0.00
"USC00509349","1964-09-21",60.08,30.92,13.00,0.00,0.00
"USC00509349","1964-09-22",50.00,35.06,58.00,0.00,0.00
"USC00509349","1964-09-23",50.00,41.00,130.00,0.00,0.00
"USC00509349","1964-09-24",50.00,30.92,0.00,0.00,0.00
"USC00509349","1964-09-25",,,0.00,0.00,0.00
"USC00509349","1964-09-26",46.94,37.94,244.00,0.00,0.00
"USC00509349","1964-09-27",50.00,37.94,38.00,0.00,0.00
"USC00509349","1964-09-28",51.08,39.02,36.00,0.00,0.00
"USC00509349","1964-09-29",57.92,42.98,0.00,0.00,0.00
"USC00509349","1964-09-30",51.98,39.92,13.00,0.00,0.00
"USC00509349","1964-10-01",48.02,41.00,107.00,0.00,0.00
"USC00509349","1964-10-02",48.02,32.00,0.00,0.00,0.00
"USC00509349","1964-10-03",50.00,37.04,0.00,0.00,0.00
"USC00509349","1964-10-04",51.98,28.94,0.00,0.00,0.00
"USC00509349","1964-10-05",50.00,41.00,8.00,0.00,0.00
"USC00509349","1964-10-06",48.02,42.08,76.00,0.00,0.00
"USC00509349","1964-10-07",46.04,41.00,254.00,0.00,0.00
"USC00509349","1964-10-08",,,135.00,0.00,0.00
"USC00509349","1964-10-09",,,0.00,0.00,0.00
"USC00509349","1964-10-10",44.96,30.02,0.00,0.00,0.00
"USC00509349","1964-10-11",55.04,28.04,0.00,0.00,0.00
"USC00509349","1964-10-12",51.98,26.96,0.00,0.00,0.00
"USC00509349","1964-10-13",50.00,26.96,0.00,0.00,0.00
"USC00509349","1964-10-14",46.94,33.08,0.00,0.00,0.00
"USC00509349","1964-10-15",44.96,28.94,0.00,0.00,0.00
"USC00509349","1964-10-16",42.08,28.94,0.00,0.00,0.00
"USC00509349","1964-10-17",30.02,23.00,56.00,64.00,76.00
"USC00509349","1964-10-18",37.04,10.94,0.00,0.00,51.00
"USC00509349","1964-10-19",30.92,8.06,0.00,0.00,51.00
"USC00509349","1964-10-20",35.06,30.92,305.00,254.00,305.00
"USC00509349","1964-10-21",42.08,32.00,81.00,0.00,152.00
"USC00509349","1964-10-22",39.92,32.00,160.00,0.00,102.00
"USC00509349","1964-10-23",33.98,26.06,0.00,0.00,102.00
"USC00509349","1964-10-24",30.92,6.98,0.00,0.00,102.00
"USC00509349","1964-10-25",28.04,3.02,0.00,0.00,102.00
"USC00509349","1964-10-26",28.04,1.04,0.00,0.00,102.00
"USC00509349","1964-10-27",,,0.00,0.00,102.00
"USC00509349","1964-10-28",33.98,23.00,,406.00,508.00
"USC00509349","1964-10-29",30.02,14.00,0.00,0.00,508.00
"USC00509349","1964-10-30",21.92,-5.98,0.00,0.00,508.00
"USC00509349","1964-10-31",30.02,1.94,0.00,0.00,508.00
"USC00509349","1965-09-01",62.06,44.06,0.00,0.00,0.00
"USC00509349","1965-09-02",60.08,32.00,0.00,0.00,0.00
"USC00509349","1965-09-03",62.96,33.98,0.00,0.00,0.00
"USC00509349","1965-09-04",55.04,48.02,71.00,0.00,0.00
"USC00509349","1965-09-05",62.06,51.98,114.00,0.00,0.00
"USC00509349","1965-09-06",55.04,51.08,191.00,0.00,0.00
"USC00509349","1965-09-07",,,,0.00,0.00
"USC00509349","1965-09-08",,,,0.00,0.00
"USC00509349","1965-09-09",,,,0.00,0.00
"USC00509349","1965-09-10",,,,0.00,0.00
"USC00509349","1965-09-11",,,,0.00,0.00
"USC00509349","1965-09-12",,,,0.00,0.00
"USC00509349","1965-09-13",,,,0.00,0.00
"USC00509349","1965-09-14",,,,0.00,0.00
"USC00509349","1965-09-15",,,,0.00,0.00
"USC00509349","1965-09-16",,,,0.00,0.00
"USC00509349","1965-09-17",,,,0.00,0.00
"USC00509349","1965-09-18",,,,0.00,0.00
"USC00509349","1965-09-19",71.06,39.92,,0.00,0.00
"USC00509349","1965-09-20",62.06,41.00,36.00,0.00,0.00
"USC00509349","1965-09-21",57.92,46.94,0.00,0.00,0.00
"USC00509349","1965-09-22",51.98,39.92,41.00,0.00,0.00
"USC00509349","1965-09-23",51.98,48.02,218.00,0.00,0.00
"USC00509349","1965-09-24",55.04,44.06,79.00,0.00,0.00
"USC00509349","1965-09-25",51.98,44.96,89.00,0.00,0.00
"USC00509349","1965-09-26",55.04,41.00,254.00,0.00,0.00
"USC00509349","1965-09-27",46.94,39.92,330.00,0.00,0.00
"USC00509349","1965-09-28",48.02,30.92,0.00,0.00,0.00
"USC00509349","1965-09-29",42.98,30.02,0.00,0.00,0.00
"USC00509349","1965-09-30",41.00,33.08,38.00,0.00,0.00
